This demonstration page uses our WeatherBlox Daily Observations layout. Learn more.

Left ArrowRight Arrow

36.19886, -115.1175

Hourly Observations for November 25, 2015

Temp ( °F °C ) Dew Point ( °F °C ) Humidity (%) Winds ( mph kmh ) Pressure ( in mb ) Visibility ( mi km ) Precip ( " mm )
12:53 am 00:53 Clear 57 13.9 32 0 39 39 S 22 35 29.63 1003 10 16 0.00 0.00
1:53 am 01:53 Clear 56 13.3 34 1.1 44 44 SSW 22 35 29.64 1004 10 16 0.00 0.00
2:53 am 02:53 Clear 55 12.8 34 1.1 45 45 S 23 37 29.62 1003 10 16 0.00 0.00
3:53 am 03:53 Clear 54 12.2 34 1.1 47 47 S 22 35 29.61 1003 10 16 0.00 0.00
4:53 am 04:53 Clear 55 12.8 29 -1.7 37 37 WSW 13 20 29.63 1003 10 16 0.00 0.00
5:53 am 05:53 Mostly Clear 53 11.7 33 0.6 47 47 S 13 20 29.64 1004 10 16 0.00 0.00
6:53 am 06:53 Sunny 53 11.7 32 0 45 45 SSW 16 26 29.64 1004 10 16 0.00 0.00
7:53 am 07:53 Sunny 56 13.3 28 -2.2 34 34 W 17 28 29.67 1005 10 16 0.00 0.00
8:53 am 08:53 Sunny 56 13.3 23 -5 28 28 WSW 14 22 29.69 1005 10 16 0.00 0.00
9:53 am 09:53 Sunny 56 13.3 9 -12.8 15 15 WSW 15 24 29.74 1007 10 16 0.00 0.00
10:26 am 10:26 Sunny 54 12 23 -5 30 30 N 16 26 29.68 1005 10 16 0.00 0.00
10:53 am 10:53 Sunny 54 12.2 25 -3.9 33 33 N 15 24 29.75 1008 10 16 0.00 0.00
11:53 am 11:53 Mostly Cloudy 54 12.2 23 -5 30 30 N 15 24 29.75 1007 10 16 0.00 0.00
12:53 pm 12:53 Cloudy 53 11.7 20 -6.7 27 27 N 12 19 29.76 1008 10 16 0.00 0.00
1:53 pm 13:53 Sunny 54 12.2 17 -8.3 23 23 N 9 15 29.75 1008 10 16 0.00 0.00
2:53 pm 14:53 Sunny 53 11.7 19 -7.2 26 26 ESE 3 6 29.77 1008 10 16 0.00 0.00
3:53 pm 15:53 Partly Cloudy 55 12.8 17 -8.3 22 22 N 8 13 29.78 1008 10 16 0.00 0.00
4:53 pm 16:53 Clear 53 11.7 17 -8.3 24 24 NW 7 11 29.79 1009 10 16 0.00 0.00
5:53 pm 17:53 Clear 51 10.6 17 -8.3 26 26 NNE 3 6 29.81 1009 10 16 0.00 0.00
6:53 pm 18:53 Clear 49 9.4 18 -7.8 29 29 Calm 29.83 1010 10 16 0.00 0.00
7:53 pm 19:53 Clear 48 8.9 18 -7.8 30 30 Calm 29.84 1011 10 16 0.00 0.00
8:53 pm 20:53 Clear 45 7.2 19 -7.2 35 35 Calm 29.85 1011 10 16 0.00 0.00
9:53 pm 21:53 Cloudy 42 5.6 20 -6.7 41 41 Calm 29.88 1012 10 16 0.00 0.00
10:53 pm 22:53 Cloudy 46 7.8 21 -6.1 37 37 WSW 5 7 29.89 1012 10 16 0.00 0.00
11:53 pm 23:53 Mostly Clear 44 6.7 21 -6.1 40 40 SSE 8 13 29.90 1013 10 16 0.00 0.00

Powered by AerisWeather